Orbital Elements at Epoch 2459200.5 (2020-Dec-17.0) TDB
Reference: JPL 30 (heliocentric ecliptic J2000)
Element | Value | Uncertainty (1-sigma) | Units |
e | .04382447600355413 | 6.8044e-08 | |
a | 2.613098918584074 | 1.1419e-08 | au |
q | 2.498581227731673 | 1.7582e-07 | au |
i | 22.67894296349721 | 5.9283e-06 | deg |
node | 31.65619723121438 | 8.8388e-06 | deg |
peri | 333.0734389562002 | 5.182e-05 | deg |
M | 135.9783731973583 | 5.346e-05 | deg |
tp | 2458617.726839083765 (2019-May-14.22683908) | 0.00022878 | TDB |
period | 1542.880187464403 4.22 | 1.0114e-05 2.769e-08 | d yr |
n | .2333298482441663 | 1.5295e-09 | deg/d |
Q | 2.727616609436475 | 1.192e-08 | au |
|
| | Orbit Determination Parameters
Additional Information
|